Location: Puketoi
(40.5833°S, 176.0167°E)
Time: 13:43:36
(UTC+00:00)

Cosmos 614 Rocket - Pass Details

Date: 08 February 2023
Orbit: 733 x 762 km, 74.1° (Epoch: 22 March)

Event Time Altitude Azimuth Distance (km) Brightness Sun altitude
Exits shadow 15:37:41 33° 347° (NNW) 1,246 4.7 -19.5°
Maximum altitude 15:40:04 83° 72° (ENE) 758 3.9 -19.2°
Drops below altitude 10° 15:45:15 10° 159° (SSE) 2,287 7.4 -18.4°
Sets 15:47:39 0° 160° (SSE) 3,223 8.3 -18.1°
